Location: Worth Mountain WMA
(34.9569°N, 81.4819°W)
Time: 13:10:00
(UTC-05:00)

Daily predictions for brighter satellites

Satellite Brightness Start Highest point End
(mag) Time Altitude Azimuth Time Altitude Azimuth Time Altitude Azimuth
CORIOLIS 4.3 18:08:58 10° SSE 18:14:18 86° WSW 18:19:42 10° NNW
Cosmos 1980 4.3 18:09:17 10° SSW 18:14:52 59° WNW 18:20:30 10° NNE
Cosmos 1356 Rocket 4.4 18:13:51 10° SSE 18:17:09 25° E 18:20:28 10° NE
Cosmos 1634 Rocket 4.1 18:12:45 10° N 18:18:58 86° W 18:25:07 10° S
IDEFIX/ARIANE 42P 3.5 18:14:07 10° S 18:19:12 55° W 18:24:22 10° NNW
Meteor 1-11 4.2 18:14:24 10° S 18:20:03 75° E 18:25:48 10° NNE
BREEZE-M DEB (TANK) 4.0 18:17:12 10° WNW 18:21:22 57° SW 18:28:36 10° SE
Aureole 2 Rocket 3.2 18:21:55 10° SSW 18:25:31 62° WNW 18:29:29 10° N
Lacrosse 5 rocket 1.3 18:22:16 10° NNW 18:26:00 51° NE 18:29:56 10° SE
H-2A ROCKET BODY 4.4 17:41:35 10° WSW 18:26:02 62° S 18:32:53 10° E
FREGAT/IRIS 4.5 18:24:30 10° ESE 18:26:03 13° ENE 18:27:36 10° NE
MSX 4.1 18:22:23 10° S 18:28:04 74° WSW 18:33:49 10° NNW
Coronas F rocket 3.2 18:28:43 10° ESE 18:29:10 11° ESE 18:29:10 11° ESE
BREEZE-M DEB (TANK) 3.1 18:28:21 10° WSW 18:30:50 35° NW 18:33:03 11° NE
Cosmos 1626 2.6 18:29:00 10° SSE 18:32:30 39° E 18:36:01 10° NNE
Cosmos 2219 Rocket 4.2 18:29:08 10° WSW 18:33:48 26° WNW 18:38:29 10° N
Cosmos 372 Rocket 3.9 18:28:51 10° NNW 18:33:58 86° ENE 18:39:04 10° SSE
YAOGAN 1 3.9 18:30:59 10° S 18:35:06 44° W 18:39:15 10° NNW
Cosmos 2333 Rocket 3.9 18:31:31 10° SW 18:36:31 32° WNW 18:41:33 10° N
OTV 4 2.2 18:33:58 10° W 18:36:38 30° SSW 18:39:16 10° SE
Cosmos 304 Rocket 3.8 18:32:31 10° SSW 18:37:19 84° WNW 18:42:09 10° NNE
Timation 1 Rocket 4.4 18:31:58 10° NNW 18:37:53 57° ENE 18:43:46 10° SE
Cosmos 1707 Rocket 3.9 18:34:24 10° N 18:38:28 39° E 18:42:32 10° SSE
COSMO-SKYMED 1 2.7 18:35:08 10° N 18:39:28 77° WNW 18:43:47 10° SSW
BREEZE M DEB (TANK) 2.8 18:39:00 10° NNW 18:40:44 18° NNE 18:40:57 17° NE
USA 215 4.0 18:37:34 12° E 18:42:47 32° NNE 18:48:27 10° NNW
Cosmos 2151 4.5 18:39:50 10° SSW 18:43:46 38° W 18:47:43 10° N
CZ-4 R/B 4.3 18:42:10 10° SW 18:45:02 20° W 18:47:56 10° NW
Cosmos 1666 Rocket 3.6 18:41:20 10° S 18:45:33 54° E 18:49:50 10° NNE
Resurs 01 Rocket 2.9 18:49:20 20° ENE 18:49:28 20° ENE 18:52:42 10° NNE
Cosmos 2278 Rocket 2.9 18:44:13 10° NNW 18:49:46 57° WSW 18:55:18 10° S
Cosmos 1726 4.1 18:47:17 10° NNW 18:50:42 33° W 18:54:06 10° SSW
Cosmos 1703 3.4 18:48:11 10° S 18:52:04 77° W 18:55:58 10° N
SJ-6B 3.3 18:48:27 10° SE 18:52:15 40° ENE 18:56:08 10° N
Cosmos 1455 2.6 18:49:13 10° N 18:52:48 40° E 18:56:25 10° SSE
Tiangong 1 1.9 18:59:58 10° SSW 19:02:39 31° SE 19:02:54 31° SE
Cosmos 1900 4.2 18:59:01 10° NNW 19:03:59 70° ENE 19:08:58 10° SE
Cosmos 2237 Rocket 4.4 19:06:22 10° WSW 19:10:39 22° WNW 19:14:58 10° N
Cosmos 2369 Rocket 4.2 19:14:37 10° NNE 19:15:08 11° NNE 19:15:08 11° NNE
SL-16 R/B 3.2 19:12:38 10° SW 19:18:01 44° WNW 19:23:26 10° N
Cosmos 1470 Rocket 3.6 19:14:19 10° SSE 19:18:32 50° E 19:19:23 43° NE
Lacrosse 4 Rocket 2.8 19:16:34 10° N 19:18:28 23° NNE 19:18:28 23° NNE
Nadezhda 4 Rocket 4.2 19:16:04 10° SSW 19:22:17 74° W 19:28:37 10° N
ALOS 2.3 19:18:06 10° SSE 19:22:36 52° ENE 19:27:09 10° N
Helios 1B rocket 4.4 19:25:46 16° SSE 19:25:46 16° SSE 19:26:44 10° SSE
USA 229 DEB 3.7 19:17:38 10° SSW 19:24:30 84° WNW 19:29:44 19° NNE
USA 229 3.7 19:17:45 10° SSW 19:24:35 85° WNW 19:29:47 19° NNE
Spot 2 Rocket 3.6 19:19:49 10° SSE 19:24:40 50° ENE 19:29:32 10° N
Cosmos 2242 Rocket 3.4 19:20:23 10° N 19:24:47 69° E 19:29:13 10° SSE
Cosmos 1184 Rocket 4.0 19:22:04 10° SSW 19:25:15 43° W 19:27:43 15° N
Cosmos 2026 Rocket 4.2 19:20:24 10° SSE 19:26:16 45° E 19:29:03 28° NE
Cosmos 2297 4.5 19:28:07 10° NNW 19:33:40 53° WSW 19:39:12 10° S
Cosmos 292 Rocket 3.6 19:29:02 10° SSW 19:33:47 82° ESE 19:35:12 46° NNE
Iridium 4 Rocket 3.1 19:29:58 10° S 19:34:34 81° W 19:38:16 14° N
Cosmos 1869 3.3 19:34:10 10° N 19:38:13 83° W 19:42:15 10° S
NOSS 3-1 (A) 4.3 19:33:40 10° S 19:37:05 28° SE 19:37:05 28° SE
Cosmos 1092 Rocket 4.3 19:37:23 10° SSW 19:43:40 70° W 19:50:01 10° N
FENGYUN 3A 3.5 19:42:26 10° SSE 19:47:47 89° WSW 19:53:11 10° NNW
Cosmos 923 Rocket 4.3 19:43:09 10° SSW 19:48:19 64° WNW 19:50:55 29° N
Meteor 2-20 4.3 19:42:32 10° S 19:48:32 64° E 19:49:31 56° NE
Cosmos 1680 Rocket 3.6 19:49:57 10° SSW 19:55:09 74° WNW 19:56:19 53° N
Cosmos 1943 3.7 19:51:10 10° S 19:55:14 45° SSE 19:55:14 45° SSE
Lacrosse 5 rocket 4.3 20:02:56 10° W 20:04:53 13° WSW 20:06:53 10° SSW
Intelsat 5-1 Rocket 4.5 20:04:22 10° SSW 20:05:57 15° S 20:05:57 15° S
NOSS 3-1 (C) 3.5 20:11:00 10° SSW 20:15:42 63° SSW 20:15:42 63° SSW
USA 215 3.3 20:24:57 70° SSW 20:25:23 72° SW 20:31:57 10° NW
Resurs 01 Rocket 3.5 20:21:45 10° SSW 20:26:52 27° WNW 20:29:40 10° NW
